Hourly Weather Roundup
Issued by NWS Central Illinois

Home | Current Version | Previous Version | Text Only | Print | Product List | Glossary On
Versions: 1 2 3 4 5 6 7 8 9 10 11 12 13 14 15 16 17 18 19 20 21 22 23 24 25 26 27 28 29 30 31 32 33 34 35 36 37 38 39 40 41 42 43 44 45 46 47 48 49 50
000
NZUS43 KILX 261210
HWRILX

AREA WEATHER ROUNDUP
NATIONAL WEATHER SERVICE, LINCOLN IL
600 AM CST SUN FEB 26 2017


CITY           SKY/WX    TMP DP  RH WIND       PRES   REMARKS
BLOOMINGTON    CLOUDY    24  18  77 S13       30.06S WCI  12
6HR MIN TEMP:  18; 6HR MAX TEMP:  25;

CHAMPAIGN      CLEAR     21  14  74 S8        30.09S WCI  11
6HR MIN TEMP:  16; 6HR MAX TEMP:  21;

DECATUR        CLEAR     24  13  62 S10       30.09F WCI  14
6HR MIN TEMP:  19; 6HR MAX TEMP:  26;

EFFINGHAM      CLEAR     23  18  81 E6        30.15F WCI  16
6HR MIN TEMP:  20; 6HR MAX TEMP:  25;

FLORA          CLEAR     21  18  86 SE6       30.16F WCI  14
6HR MIN TEMP:  19; 6HR MAX TEMP:  25;

GALESBURG      CLOUDY    29  19  65 S13       29.98F WCI  19
6HR MIN TEMP:  23; 6HR MAX TEMP:  29;

JACKSONVILLE   PTCLDY    29  16  57 S12       30.06R WCI  19
6HR MIN TEMP:  22; 6HR MAX TEMP:  29;

LACON          CLOUDY    28  16  60 S8        30.03S WCI  20
6HR MIN TEMP:  23; 6HR MAX TEMP:  28;

LAWRENCEVILLE  PTCLDY    22  18  85 S6        30.19R WCI  14
6HR MIN TEMP:  21; 6HR MAX TEMP:  28;

LITCHFIELD     PTCLDY    25  16  69 SE7       30.09S WCI  17
6HR MIN TEMP:  21; 6HR MAX TEMP:  25;

$$


CITY           SKY/WX    TMP DP  RH WIND       PRES   REMARKS
LINCOLN        MOCLDY    26  16  68 S9        30.07F WCI  16
6HR MIN TEMP:  20; 6HR MAX TEMP:  26;

MACOMB         CLOUDY    30  18  62 S12       30.03S WCI  20
6HR MIN TEMP:  22; 6HR MAX TEMP:  30;

MATTOON        CLEAR     22  16  78 S7        30.11S WCI  13
6HR MIN TEMP:  19; 6HR MAX TEMP:  26;

MT CARMEL AP   CLEAR     21  17  83 SE5       30.19S WCI  15
6HR MIN TEMP:  20; 6HR MAX TEMP:  26;

OLNEY-NOBLE AP CLEAR     21  19  93 SE3       30.17F
PARIS          CLEAR     20  17  85 SE5       30.15R WCI  14
6HR MIN TEMP:  19; 6HR MAX TEMP:  21;

PEORIA         CLOUDY    27  17  66 S10       30.04F WCI  17
6HR MIN TEMP:  23; 6HR MAX TEMP:  28;

PONTIAC        CLOUDY    26  19  72 S10       30.06S WCI  16
6HR MIN TEMP:  23; 6HR MAX TEMP:  26;

RANTOUL        CLOUDY    22  18  83 SE5       30.09S WCI  16
6HR MIN TEMP:  21; 6HR MAX TEMP:  25;

SPRINGFIELD    CLEAR     28  15  58 S13       30.07F WCI  17
6HR MIN TEMP:  21; 6HR MAX TEMP:  28;

TAYLORVILLE    CLEAR     24  16  69 S9        30.09F WCI  15
6HR MIN TEMP:  19; 6HR MAX TEMP:  25;

$$

...REGIONAL REPORTS...


CITY           SKY/WX    TMP DP  RH WIND       PRES   REMARKS
CHICAGO O`HARE MOCLDY    25  19  78 S8        30.01S WCI  16
KANKAKEE       CLOUDY    23  18  81 S6        30.07F WCI  16
MOLINE         CLOUDY    32  16  51 S14G24    29.94F WCI  22
MOUNT STERLING MOCLDY    28  17  62 S9        30.03S WCI  20
MOUNT VERNON   CLEAR     17  15  92 CALM      30.16S
PITTSFIELD     PTCLDY    29  17  59 S7        30.07R WCI  22
QUINCY         CLOUDY    30  16  56 S13       30.03R WCI  20
ROCKFORD       CLOUDY    28  19  69 S12       29.98F WCI  18
$$


CITY           SKY/WX    TMP DP  RH WIND       PRES   REMARKS
BURLINGTON     CLOUDY    31  18  58 S15       29.98F WCI  20
CEDAR RAPIDS   CLEAR     28  19  69 S15       29.87S WCI  16
DES MOINES     PTCLDY    29  20  69 SW12      29.88R WCI  19
KIRKSVILLE     CLOUDY    32  14  47 SW12      29.99S WCI  23
OTTUMWA        CLEAR     33  16  49 S16       29.90S WCI  23
ST LOUIS       MOCLDY    32  13  45 S12       30.10R WCI  23
$$


CITY           SKY/WX    TMP DP  RH WIND       PRES   REMARKS
TERRE HAUTE    CLEAR     21  16  81 S5        30.16S WCI  15
EVANSVILLE     CLEAR     24  18  77 CALM      30.21S
INDIANAPOLIS   PTCLDY    20  15  81 S7        30.15R WCI  11
LAFAYETTE      CLEAR     18  16  92 CALM      30.12S
MADISON        CLOUDY    25  18  74 S9        29.88F WCI  15
MILWAUKEE      CLOUDY    25  17  72 S8        29.96S WCI  16
$$






USA.gov is the U.S. government's official web portal to all federal, state and local government web resources and services.